Location: Buffign�court
(47.8126°N, 6.0176°E)
Time: 02:48:10
(UTC+00:00)

Cosmos 1606 Rocket - Pass Details

Date: 16 June 2021
Orbit: 602 x 633 km, 82.5° (Epoch: 04 August)

Event Time Altitude Azimuth Distance (km) Brightness Sun altitude
Rises 22:03:44 0° 354° (N) 2,941 8.6 -15.8°
Reaches altitude 10° 22:06:02 10° 359° (N) 2,026 7.3 -15.9°
Maximum altitude 22:10:27 54° 77° (ENE) 771 3.9 -16.2°
Enters shadow 22:12:30 29° 141° (SE) 1,162 4.4 -16.3°
